Location: Bretagne
(43.8474°N, 0.4650°W)
Time: 16:17:03
(UTC+00:00)

USA 215 - Pass Details

Date: 15 January 2026
Orbit: 1098 x 1109 km, 123.0° (Epoch: 10 January)

Event Time Altitude Azimuth Distance (km) Brightness Sun altitude
Exits shadow 19:32:01 54° 26° (NNE) 1,323 3.4 -28.7°
Maximum altitude 19:33:31 71° 325° (NW) 1,161 3.3 -29.0°
Drops below altitude 10° 19:40:00 10° 243° (WSW) 2,952 6.2 -30.1°
Sets 19:42:29 0° 241° (WSW) 3,907 7.0 -30.6°
